THOR AGENA B DEB, 1951

Orbit data source: Space-Track

THOR AGENA B DEB, 1951 is space debris in LEO originally from a launch on Mon, 29 Nov 1965 UTC launched from the Air Force Western Test Range (AFWTR). Debris objects in space refer to the collection of defunct objects orbiting the Earth. Examples of debris include non-operational satellites, rocket bodies, and fragments generated from explosions, collisions, or faulty payload assembly.

Loading next visibility...
Identifier
1951, 1965-098G
Orbit
LEO
Country
Flag of USUS
Related business
Manufacturer
Unknown
Mission
Spacecraft
Bus & Motor
Unknown
Mass
~1 kg wet, ~1 kg dry
Launch date (UTC)
1965-11-29 (61 years ago)
Launch vehicle
Unknown
Launch site
Air Force Western Test Range (AFWTR)
Object type
Payload
Rocket body
Debris
Shape & HBR
PART CYL + CONE, 0.8 m
Radar Cross Section
Medium (>0.1 m² and <1 m²)

Expand to show TLE details & history
Last TLE update: 20 hours ago

TLE from 20 hours ago
0 THOR AGENA B DEB
1 01951U 65098G   26247.90708172  .00003792  00000-0  68187-3 0  9993
2 01951  79.6072 219.7652 0762441  58.8345 308.5278 13.58941805818451
Epoch: 2026-09-04T21:46Z
TLE epoch observation values (Epoch: 2026-09-04T21:46:11.860Z)
Latitude
-0.00011°
Longitude
-90.80841°
Altitude
718.293 km
Speed
7.658 km/s
True Right ascension
14h 39m 03s
True Declination
0° 00' 00"
Sunlit
Object was in daylight at epoch
Visualization orbit readout
Latitude
Unknown
Longitude
Unknown
Altitude
Unknown
Speed
Unknown
Apparent Right ascension
Unknown
Apparent Declination
Unknown
Sunlit
N/A
Visualization observer readout
Local Sidereal Time
09:39:57
Azimuth
Unknown
Elevation
Unknown
Doppler factor
Unknown
Orbital elements
Apogee altitude
1,602.192 km
Perigee altitude
471.495 km
Semi-major axis
7,414.98 km
Eccentricity
0.07624
Inclination
79.6072°
RAAN
219.7652°
Arg. of periapsis
58.8345°
True anomaly
301.28215°
Mean anomaly
308.5278°
Eccentric anomaly
304.94705°
Mean motion
3.39921 °/min
Orbital period
105.91 mins
BSTAR
0.00068187
Loading maneuver chart data...
Computing Atmospheric mass density...
Loading historical data...
Loading historical data...
Loading historical data...
Loading historical data...
Loading historical data...
Loading historical data...
Loading historical data...

Documentation

Showing up to 5 results
|